Home   Weather   Zabrze   Past weeks

Flag for Poland Past Weather in Zabrze, Poland — Yesterday and Last 2 Weeks

Now
50 °F

Passing clouds.


Feels Like: 45 °F
Forecast: 39 / 62 °F
Wind: 15 mph from Southwest

Location: Katowice Airport

Current Time: Apr 24, 2017 at 5:12:02 pm

Latest Report: Apr 24, 2017 at 4:30 pm


Visibility: N/A

Pressure: 29.98 "Hg

Humidity: 40%

Dew Point: 27 °F

Location of ZabrzeLocation

Past Weather in Zabrze — Graph

°F

Zabrze Temperature Yesterday

Maximum temperature yesterday: 48 °F (at 4:00 pm)
Minimum temperature yesterday: 32 °F (at 2:30 am)
Average temperature yesterday: 39 °F

High & Low Weather Summary for the Past Weeks

 TemperatureHumidityPressure
High68 °F (Apr 10, 4:00 pm)100% (Apr 11, 2:00 am)30.39 "Hg (Apr 11, 2:00 am)
Low25 °F (Apr 21, 2:00 am)38% (Apr 10, 4:00 pm)29.68 "Hg (Apr 13, 5:30 am)
Average42 °F73%30.01 "Hg
* Reported Apr 9 3:00 pm — Apr 24 3:30 pm, Zabrze, Weather by CustomWeather, © 2017

Note: Actual official high and low records may vary slightly from our data, if they occured in-between our weather recording intervals... More about our weather records

Advertising

Zabrze Weather History for the Previous 24 Hours

Scroll right to see more
 ConditionsComfort  
Time TempWeatherWind HumidityBarometerVisibility
3:30 pm
Mon, Apr 24
50 °FPassing clouds.12 mph47%30.01 "HgN/A
3:00 pm48 °FPassing clouds.12 mph46%30.01 "HgN/A
2:30 pm50 °FPassing clouds.15 mph40%30.04 "HgN/A
2:00 pm48 °FScattered clouds.13 mph40%30.04 "HgN/A
1:30 pm46 °FScattered clouds.12 mph43%30.04 "HgN/A
1:00 pm46 °FScattered clouds.17 mph46%30.04 "HgN/A
12:30 pm46 °FScattered clouds.15 mph50%30.07 "HgN/A
12:00 pm45 °FScattered clouds.12 mph53%30.07 "HgN/A
11:30 am46 °FScattered clouds.14 mph53%30.07 "HgN/A
11:00 am43 °FScattered clouds.13 mph57%30.07 "HgN/A
10:30 am43 °FPartly sunny.14 mph61%30.07 "HgN/A
10:00 am41 °FBroken clouds.15 mph66%30.09 "HgN/A
9:30 am45 °FPartly sunny.12 mph66%30.09 "HgN/A
9:00 am39 °FPartly sunny.13 mph75%30.09 "HgN/A
8:30 am39 °FPartly sunny.10 mph81%30.09 "HgN/A
8:00 am39 °FPassing clouds.10 mph81%30.09 "HgN/A
7:30 am36 °FPartly sunny.8 mph93%30.07 "HgN/A
7:00 am36 °FBroken clouds.8 mph87%30.07 "HgN/A
6:30 am36 °FBroken clouds.8 mph87%30.07 "HgN/A
6:00 am34 °FBroken clouds.7 mph93%30.07 "HgN/A
5:30 am34 °FPartly cloudy.8 mph93%30.07 "HgN/A
5:00 am36 °FPassing clouds.8 mph93%30.07 "HgN/A
4:30 am34 °FPassing clouds.9 mph93%30.07 "HgN/A
4:00 am34 °FPassing clouds.8 mph93%30.07 "HgN/A
3:30 am36 °FClear.10 mph87%30.07 "Hg10 mi
3:00 am36 °FClear.10 mph93%30.07 "Hg10 mi
2:30 am36 °FPassing clouds.10 mph93%30.07 "HgN/A
2:00 am36 °FPartly cloudy.8 mph93%30.07 "HgN/A
1:30 am36 °FOvercast.8 mph93%30.07 "HgN/A
1:00 am36 °FPartly cloudy.12 mph93%30.07 "HgN/A
12:30 am36 °FSprinkles. Mostly cloudy.12 mph93%30.07 "HgN/A
12:00 am36 °FSprinkles. Passing clouds.12 mph87%30.07 "HgN/A
11:30 pm
Sun, Apr 23
37 °FPassing clouds.13 mph81%30.07 "HgN/A
11:00 pm37 °FPartly cloudy.13 mph81%30.07 "HgN/A
10:30 pm37 °FPartly cloudy.13 mph81%30.07 "HgN/A
10:00 pm37 °FClear.12 mph81%30.04 "Hg10 mi
9:00 pm37 °FClear.13 mph75%30.04 "Hg10 mi
8:30 pm37 °FClear.14 mph75%30.04 "Hg10 mi
8:00 pm39 °FClear.12 mph70%30.01 "Hg10 mi
7:30 pm41 °FPassing clouds.16 mph70%30.01 "HgN/A
7:00 pm43 °FBroken clouds.9 mph71%30.01 "HgN/A
6:30 pm41 °FScattered clouds.9 mph76%30.01 "HgN/A
6:00 pm41 °FScattered clouds.7 mph76%30.01 "HgN/A
5:30 pm39 °FScattered clouds.13 mph81%30.01 "HgN/A
5:00 pm41 °FScattered clouds.7 mph70%30.01 "HgN/A
Weather by CustomWeather, © 2017

See weather overviewHow to use our weather pages